[[{"header":{"parameterUnit":"m.s-1","parameterCategory":1,"la1":30.2991,"la2":30.254,"lo1":-89.0895,"lo2":-89.0444,"dy":0.0017,"dx":0.0017,"nx":28,"ny":28,"refTime":"2023-09-22T21:00:00:Z","depth":0,"parameterNumber":2,"parameterNumberName":"U-component_of_WINDS"},"data":[0,0,0,0,0,0,0,0,0,0,0,0,0,0,0,0,0,0,0,0,0,0,0,0,0,0,0,0,0,0,0,0,0,0,0,0,0,0,0,0,0,0,0,0,0,0,0,0,0,0,0,0,0,0,0,0,0,0,-0.607,-0.607,0,-0.6029,-0.6029,-0.6029,-0.5996,-0.5996,-0.5995,-0.5995,-0.5952,-0.5951,-0.5951,0,0,0,0,0,0,0,0,0,0,0,0,0,-0.612,-0.6119,-0.607,-0.607,-0.6069,-0.603,-0.6029,-0.6028,-0.5996,-0.5996,-0.5995,-0.5995,-0.5953,-0.5952,-0.595,0,0,0,0,0,0,0,0,0,0,0,0,0,-0.609,-0.6119,-0.607,-0.6048,-0.6046,-0.603,-0.6029,-0.6028,-0.5996,-0.5996,-0.5995,-0.5995,-0.5953,-0.5952,-0.595,-0.5952,0,0,-0.5946,-0.5946,0,0,0,0,0,0,0,0,-0.6092,-0.6089,-0.6052,-0.605,-0.6047,-0.6017,-0.6031,-0.6003,-0.5996,-0.6015,-0.5995,-0.5995,-0.5974,-0.5971,-0.5965,-0.595,-0.5948,-0.5946,-0.5946,-0.5945,-0.5945,0,0,0,0,0,0,0,-0.6094,-0.609,-0.6054,-0.6051,-0.6048,-0.604,-0.6036,-0.6025,-0.5998,-0.6013,-0.6011,-0.6007,-0.5973,-0.5966,-0.5963,-0.5948,-0.5946,-0.5945,-0.5945,-0.5944,-0.5935,-0.5936,0,0,0,0,0,0,-0.61,-0.6092,-0.6055,-0.6053,-0.6069,-0.604,-0.6035,-0.6027,-0.5998,-0.5993,-0.6007,-0.6005,-0.5968,-0.5965,-0.5962,-0.5963,-0.5945,-0.5944,-0.5943,-0.5935,-0.5935,-0.5936,0,0,0,0,0,0,-0.6101,-0.6097,-0.6057,-0.6072,-0.6066,-0.604,-0.6032,-0.6027,-0.602,-0.5993,-0.5988,-0.6005,-0.5968,-0.5963,-0.5955,-0.5961,-0.5943,-0.5942,-0.5934,-0.5935,-0.5935,-0.5966,0,0,0,0,0,0,-0.6102,-0.6097,-0.6098,-0.6072,-0.6065,-0.6051,-0.6032,-0.6026,-0.6018,-0.6015,-0.599,-0.5985,-0.5967,-0.5957,-0.5954,-0.5959,-0.5941,-0.5933,-0.5934,-0.5935,-0.5964,-0.5968,-0.597,0,0,0,0,0,-0.6104,-0.6107,-0.6098,-0.6094,-0.6065,-0.6052,-0.6048,-0.6027,-0.6019,-0.6019,-0.6002,-0.5986,-0.5961,-0.5957,-0.5953,-0.5958,-0.5933,-0.5934,-0.5935,-0.5963,-0.5967,-0.597,0,0,0,0,0,0,-0.6133,-0.6103,-0.6093,-0.6087,-0.6072,-0.6046,-0.6046,-0.6032,-0.6019,-0.6017,-0.5991,-0.5986,-0.5981,-0.5968,-0.5964,-0.5959,-0.5945,-0.5945,-0.5967,-0.5971,-0.5974,-0.5978,-0.594,0,0,0,0,0,-0.6139,-0.6131,-0.6105,-0.6103,-0.6096,-0.6072,-0.6066,-0.6051,-0.6035,-0.6028,-0.601,-0.5995,-0.5984,-0.5976,-0.5965,-0.5962,-0.5957,-0.5964,-0.5967,-0.597,-0.597,-0.597,-0.5973,-0.594,-0.594,-0.594,0,0,-0.6151,-0.6133,-0.6129,-0.6108,-0.6095,-0.6087,-0.6067,-0.6059,-0.6053,-0.6026,-0.6018,-0.6005,-0.5986,-0.5981,-0.5978,-0.5971,-0.5979,-0.5971,-0.5974,-0.5973,-0.5972,-0.5975,-0.5978,-0.594,-0.594,-0.594,0,0,-0.6168,-0.6154,-0.6151,-0.6139,-0.612,-0.6104,-0.6104,-0.608,-0.6071,-0.6062,-0.6043,-0.6035,-0.6016,-0.6004,-0.5995,-0.6011,-0.5996,-0.6007,-0.6024,-0.6024,-0.6026,-0.6029,-0.6035,-0.6038,-0.6008,-0.6008,-0.6008,0,-0.6185,-0.6173,-0.6151,-0.6145,-0.6137,-0.6114,-0.6111,-0.61,-0.6078,-0.6073,-0.6065,-0.6042,-0.6027,-0.602,-0.6024,-0.6017,-0.6017,-0.601,-0.6028,-0.603,-0.6032,-0.6038,-0.604,-0.601,-0.601,-0.6009,-0.6009,0,-0.6195,-0.6187,-0.6187,-0.6168,-0.6159,-0.6155,-0.6133,-0.6127,-0.6114,-0.61,-0.6093,-0.6075,-0.606,-0.6057,-0.6043,-0.6049,-0.6045,-0.6033,-0.6018,-0.6037,-0.6042,-0.6044,-0.6012,-0.6012,-0.6011,-0.6011,0,0,-0.6229,-0.6199,-0.6199,-0.6191,-0.6169,-0.6162,-0.6157,-0.6143,-0.6139,-0.6125,-0.6121,-0.6107,-0.6096,-0.6086,-0.6071,-0.6071,-0.6086,-0.6059,-0.6058,-0.6066,-0.6093,-0.6103,-0.6106,-0.6077,-0.6077,-0.6077,-0.6095,0,-0.6244,-0.6234,-0.6216,-0.6212,-0.6205,-0.6184,-0.618,-0.6166,-0.6153,-0.6145,-0.6131,-0.6121,-0.6107,-0.6101,-0.61,-0.6085,-0.6092,-0.6083,-0.6073,-0.6073,-0.6079,-0.6108,-0.6118,-0.6136,-0.6097,-0.6097,-0.6097,0,-0.6259,-0.6248,-0.6244,-0.6224,-0.622,-0.6217,-0.6204,-0.6196,-0.6181,-0.6172,-0.6162,-0.6146,-0.6141,-0.6128,-0.612,-0.6115,-0.611,-0.6102,-0.6102,-0.6101,-0.6087,-0.6109,-0.6141,-0.6144,-0.61,-0.61,-0.61,0,-0.6286,-0.6269,-0.6265,-0.6258,-0.6235,-0.6233,-0.6223,-0.6207,-0.6201,-0.6189,-0.6185,-0.6173,-0.6166,-0.6157,-0.6139,-0.6131,-0.6134,-0.6119,-0.6127,-0.6128,-0.6129,-0.6129,-0.6162,-0.6125,-0.6125,-0.6125,-0.6124,0,-0.6305,-0.6303,-0.6277,-0.6275,-0.6273,-0.6252,-0.6251,-0.6239,-0.6226,-0.6221,-0.6201,-0.6197,-0.6173,-0.6167,-0.6152,-0.6149,-0.6146,-0.6139,-0.6135,-0.6141,-0.6142,-0.6138,-0.6136,-0.6125,-0.6125,-0.6125,-0.6125,0,-0.6334,-0.6316,-0.6311,-0.6289,-0.6284,-0.6284,-0.6266,-0.6263,-0.6249,-0.6244,-0.6241,-0.622,-0.6211,-0.6193,-0.6178,-0.6169,-0.617,-0.6163,-0.6176,-0.6173,-0.6183,-0.6183,-0.6214,-0.6218,-0.6178,-0.6178,-0.6179,0,-0.6348,-0.6346,-0.6325,-0.6321,-0.6312,-0.6306,-0.6299,-0.6279,-0.6273,-0.6257,-0.6256,-0.6247,-0.6238,-0.6225,-0.6209,-0.6198,-0.6191,-0.6203,-0.619,-0.6196,-0.6193,-0.6194,-0.6194,-0.6206,-0.6207,-0.6207,-0.6207,0,-0.6374,-0.6366,-0.6358,-0.6347,-0.634,-0.633,-0.632,-0.6317,-0.6295,-0.629,-0.6281,-0.6274,-0.6261,-0.6252,-0.624,-0.6229,-0.6215,-0.6212,-0.6214,-0.622,-0.6228,-0.6225,-0.6185,-0.6211,-0.6211,-0.6211,-0.621,-0.621,-0.6397,-0.6395,-0.6381,-0.6373,-0.6363,-0.6354,-0.6351,-0.6338,-0.633,-0.6318,-0.6307,-0.63,-0.6286,-0.6268,-0.6259,-0.6254,-0.6247,-0.6248,-0.6249,-0.625,-0.6253,-0.6228,-0.6252,-0.6251,-0.6251,-0.6251,-0.6251,0,-0.6423,-0.6413,-0.6406,-0.6393,-0.6387,-0.6374,-0.6362,-0.6358,-0.6352,-0.6341,-0.6333,-0.6324,-0.6316,-0.6299,-0.629,-0.6289,-0.6282,-0.6287,-0.6287,-0.6285,-0.626,-0.626,-0.6293,-0.6293,-0.6293,-0.6293,-0.6293,-0.6293,-0.6436,-0.6434,-0.6424,-0.6417,-0.6407,-0.6401,-0.6395,-0.6387,-0.6378,-0.6369,-0.6362,-0.6352,-0.6339,-0.6328,-0.632,-0.6316,-0.6314,-0.6321,-0.6315,-0.6291,-0.6287,-0.6283,-0.6283,-0.632,-0.632,-0.6341,-0.6341,-0.6341]},{"header":{"parameterUnit":"m.s-1","parameterCategory":1,"la1":30.2991,"la2":30.254,"lo1":-89.0895,"lo2":-89.0444,"dy":0.0017,"dx":0.0017,"nx":28,"ny":28,"refTime":"2023-09-22T21:00:00:Z","depth":0,"parameterNumber":3,"parameterNumberName":"V-component_of_WINDS"},"data":[0,0,0,0,0,0,0,0,0,0,0,0,0,0,0,0,0,0,0,0,0,0,0,0,0,0,0,0,0,0,0,0,0,0,0,0,0,0,0,0,0,0,0,0,0,0,0,0,0,0,0,0,0,0,0,0,0,0,2.8161,2.816,0,2.8094,2.8093,2.8092,2.8098,2.8099,2.81,2.8101,2.8026,2.8023,2.802,0,0,0,0,0,0,0,0,0,0,0,0,0,2.8287,2.8285,2.8161,2.816,2.8159,2.8094,2.8093,2.8092,2.8098,2.8099,2.8101,2.8102,2.8027,2.8023,2.802,0,0,0,0,0,0,0,0,0,0,0,0,0,2.8227,2.8284,2.8161,2.8155,2.8153,2.8094,2.8093,2.8092,2.8098,2.8099,2.8101,2.8102,2.8028,2.8024,2.8019,2.796,0,0,2.8006,2.8004,0,0,0,0,0,0,0,0,2.823,2.8222,2.8156,2.8155,2.8153,2.8106,2.811,2.8048,2.8097,2.8119,2.8101,2.8103,2.8051,2.8045,2.8028,2.7957,2.7954,2.8005,2.8002,2.8001,2.7999,0,0,0,0,0,0,0,2.8235,2.8225,2.8134,2.8155,2.8153,2.8153,2.8146,2.8098,2.8076,2.8117,2.8117,2.811,2.805,2.8033,2.8027,2.7952,2.8005,2.8001,2.7999,2.7997,2.7827,2.7825,0,0,0,0,0,0,2.8241,2.8229,2.8136,2.8132,2.8197,2.8149,2.8142,2.812,2.8077,2.8072,2.8108,2.811,2.804,2.8032,2.8024,2.7951,2.8001,2.7996,2.7994,2.7829,2.7827,2.7825,0,0,0,0,0,0,2.8244,2.8233,2.8139,2.8181,2.8169,2.8145,2.8121,2.8118,2.81,2.8071,2.8066,2.8095,2.8041,2.803,2.7976,2.7948,2.7994,2.799,2.7831,2.7828,2.7826,2.7805,0,0,0,0,0,0,2.8248,2.8234,2.8213,2.818,2.8166,2.8094,2.8119,2.8115,2.8093,2.8095,2.8057,2.8052,2.8041,2.7983,2.7972,2.7943,2.7987,2.7833,2.783,2.7826,2.7808,2.7802,2.7797,0,0,0,0,0,2.8252,2.8209,2.8212,2.8201,2.814,2.8093,2.8085,2.8075,2.8091,2.8068,2.8049,2.8053,2.7954,2.7977,2.7965,2.7934,2.7835,2.7831,2.7827,2.781,2.7803,2.7797,0,0,0,0,0,0,2.8236,2.8204,2.8207,2.8153,2.8126,2.8094,2.8065,2.8068,2.8034,2.8036,2.8024,2.8015,2.796,2.7942,2.7969,2.7874,2.7896,2.7889,2.7888,2.7881,2.7875,2.788,2.7983,0,0,0,0,0,2.8227,2.8194,2.8166,2.812,2.8107,2.8089,2.8068,2.8063,2.8033,2.8021,2.7998,2.7968,2.7929,2.7904,2.7867,2.7806,2.7796,2.7779,2.7773,2.7768,2.7762,2.7726,2.7717,2.7811,2.7811,2.7811,0,0,2.8206,2.8185,2.8164,2.8117,2.8095,2.8059,2.8079,2.8039,2.8011,2.8014,2.7962,2.7944,2.7909,2.7851,2.7824,2.7834,2.7734,2.7763,2.776,2.7756,2.7721,2.7712,2.7704,2.7808,2.7809,2.7809,0,0,2.815,2.8131,2.809,2.8069,2.8037,2.8025,2.8015,2.7983,2.7972,2.792,2.7921,2.7886,2.7821,2.7795,2.7774,2.7708,2.7709,2.7696,2.7665,2.7631,2.7623,2.7617,2.7591,2.7582,2.769,2.769,2.769,0,2.8127,2.8075,2.8068,2.8029,2.8007,2.801,2.7967,2.7946,2.7903,2.7886,2.7899,2.7817,2.7793,2.7728,2.7712,2.7695,2.7682,2.7699,2.7625,2.7619,2.7612,2.7588,2.7578,2.7688,2.7689,2.7689,2.7689,0,2.8048,2.8011,2.7981,2.7942,2.7917,2.7875,2.786,2.7835,2.7833,2.7819,2.7764,2.7737,2.7694,2.7678,2.7674,2.7612,2.7619,2.7629,2.765,2.7602,2.7579,2.7569,2.7686,2.7687,2.7687,2.7688,0,0,2.7978,2.7936,2.7925,2.7907,2.7872,2.7842,2.78,2.776,2.7738,2.7708,2.7671,2.7616,2.7625,2.76,2.7593,2.7563,2.751,2.7576,2.7575,2.7563,2.7437,2.7429,2.7419,2.7512,2.751,2.7509,2.744,0,2.7917,2.7845,2.7838,2.7773,2.7737,2.774,2.7703,2.7677,2.7662,2.7628,2.7611,2.7572,2.7588,2.7573,2.7543,2.7523,2.7484,2.7528,2.7474,2.7472,2.7482,2.7407,2.7398,2.7335,2.7431,2.7429,2.7428,0,2.7836,2.7805,2.7737,2.7706,2.7691,2.7659,2.7621,2.7589,2.7558,2.755,2.7523,2.752,2.7474,2.7499,2.7434,2.7464,2.7441,2.7428,2.7425,2.7418,2.7446,2.7396,2.7314,2.7304,2.7414,2.7415,2.7416,0,2.779,2.7732,2.7683,2.7667,2.7631,2.7607,2.7591,2.7561,2.7538,2.7504,2.7488,2.7449,2.7427,2.7396,2.7381,2.7401,2.7316,2.734,2.7306,2.7306,2.7287,2.7288,2.7198,2.7275,2.7275,2.7275,2.7276,0,2.7721,2.7679,2.7662,2.7632,2.7584,2.7575,2.7527,2.7511,2.7485,2.745,2.7449,2.7416,2.74,2.7363,2.7352,2.7299,2.7289,2.7279,2.7276,2.7278,2.7279,2.7262,2.7265,2.7273,2.7273,2.7274,2.7274,0,2.7661,2.7649,2.7596,2.7566,2.7557,2.7523,2.7496,2.7466,2.7452,2.7408,2.7397,2.7374,2.7331,2.7314,2.7261,2.7253,2.7192,2.7193,2.7203,2.7201,2.7167,2.717,2.7062,2.7047,2.7135,2.7135,2.7134,0,2.7617,2.7585,2.7552,2.753,2.7513,2.7477,2.7453,2.7443,2.7418,2.738,2.7353,2.7311,2.7276,2.7207,2.7184,2.7143,2.7142,2.7107,2.7136,2.7138,2.7139,2.7141,2.7137,2.7101,2.71,2.71,2.7099,0,2.754,2.7536,2.7503,2.7467,2.744,2.7411,2.7382,2.7363,2.7348,2.7319,2.7277,2.725,2.7197,2.7154,2.7111,2.7091,2.7091,2.7091,2.708,2.7081,2.7087,2.7082,2.7187,2.7093,2.7093,2.7094,2.7094,2.7094,2.7486,2.7457,2.7429,2.7392,2.737,2.7344,2.7314,2.7297,2.7262,2.7219,2.7214,2.7168,2.7136,2.708,2.7058,2.7019,2.7028,2.7013,2.7009,2.7005,2.7002,2.7095,2.7012,2.7012,2.7012,2.7012,2.7012,0,2.7407,2.739,2.7356,2.7317,2.7287,2.7294,2.7262,2.7236,2.7196,2.7167,2.7134,2.7084,2.7042,2.7017,2.6974,2.6948,2.6947,2.6937,2.6938,2.6933,2.6998,2.701,2.6939,2.6939,2.6939,2.6939,2.6939,2.6939,2.7363,2.7314,2.7306,2.7245,2.7227,2.7184,2.7165,2.714,2.7117,2.7062,2.7028,2.7012,2.6984,2.694,2.6901,2.6894,2.6878,2.6867,2.686,2.6921,2.6928,2.6936,2.6947,2.6864,2.6864,2.6799,2.6798,2.6798]}]]